Showing default

COSMOS 82, 1572

Orbit data source: Space-Track

COSMOS 82, 1572 is a payload satellite owned by OKB-10 (CIS) in LEO that was launched on Fri, 03 Sep 1965 UTC via a KOSMOS 65S3 launch vehicle from the Tyuratam Missile And Space Complex (TTMTR). Payload-class satellites include a variety of spacecraft equipped with specific instruments for various scientific and technological missions. These include communications satellites like Starlink; space stations such as the ISS; scientific satellites like the Hubble; Earth observation satellites from companies like Planet Labs, Umbra, and HawkEye 360; GPS; miniature CubeSats for education and research; and military/defense satellites.

Loading next visibility...
Identifier
1572, 1965-070C
Orbit
LEO
Country
Flag of CISCIS
Related business
Manufacturer
OKB-10
Mission
Defense Communications
Bus & Motor
STRELA-1 11F610, Unknown motor
Mass
50 kg wet, 50 kg dry
Launch date (UTC)
1965-09-03 (60 years ago)
Launch vehicle
KOSMOS 65S3
Launch site
Tyuratam Missile And Space Complex (TTMTR)
Object type
Payload
Rocket body
Debris
Shape & HBR
Poly, 0.4 m
Radar Cross Section
0.731 m², Medium (>0.1 m² and < 1m²)

Expand to show TLE details & history
Last TLE update: 20 hours ago

TLE from 20 hours ago
0 COSMOS 82
1 01572U 65070C   25257.32348316 -.00000080  00000-0  92872-4 0  9995
2 01572  56.0579 275.3013 0072679 250.8680 121.6921 12.45118968729847
Epoch: 2025-09-14T07:45Z
TLE epoch observation values (Epoch: 2025-09-14T07:45:48.945Z)
Latitude
10.95889°
Longitude
172.75484°
Altitude
1,515.605 km
Speed
7.095 km/s
True Right ascension
18h 51m 00s
True Declination
10° 54' 04"
Sunlit
Object was in daylight at epoch
Visualization orbit readout
Latitude
Unknown
Longitude
Unknown
Altitude
Unknown
Speed
Unknown
Apparent Right ascension
Unknown
Apparent Declination
Unknown
Sunlit
N/A
Visualization observer readout
Local Sidereal Time
20:48:12
Azimuth
Unknown
Elevation
Unknown
Doppler factor
Unknown
Orbital elements
Apogee altitude
1,541.948 km
Perigee altitude
1,427.654 km
Semi-major axis
7,862.938 km
Eccentricity
0.00727
Inclination
56.0579°
RAAN
275.3013°
Arg. of periapsis
250.868°
True anomaly
122.39737°
Mean anomaly
121.6921°
Eccentric anomaly
122.04507°
Mean motion
3.11291 °/min
Orbital period
115.65 mins
BSTAR
0.000092872
Loading maneuver chart data...
Computing Atmospheric mass density...
Loading historical data...
Loading historical data...
Loading historical data...
Loading historical data...
Loading historical data...
Loading historical data...
Loading historical data...
Other satellites on launch #70 in the year 1965 (1965-09-03 UTC)

Documentation

Showing up to 5 results
|